Simultaneous Nadir Overpasses (SNOs) Predictions

Prediction of SNOs between METOP-B and TERRA Satellite Orbit:

Table of predicted SNOs for the next 14.0 days since TLE Epoch: 1/18/2014
Index Date (METOP-B) Time (METOP-B) Lat,Lon (METOP-B) SZA (METOP-B ) Date (TERRA) Time (TERRA) Lat,Lon (TERRA) SZA (TERRA ) Distance(km) Time Diff (sec)
1 01/19/2014 10:46:58 81.28, 64.59 103.85 01/19/2014 10:48:02 81.28, 64.74 103.90 2.61 64
2 01/19/2014 11:37:37 -81.29,-127.44 76.09 01/19/2014 11:37:28 -81.30,-127.33 76.07 2.12 9
3 01/22/2014 06:21:19 81.29, 131.36 103.26 01/22/2014 06:22:14 81.29, 131.24 103.27 2.08 55
4 01/22/2014 07:11:59 -81.29, -61.08 76.73 01/22/2014 07:11:41 -81.28, -61.18 76.75 1.83 18
5 01/25/2014 01:55:41 81.29,-162.29 102.57 01/25/2014 01:56:26 81.28,-162.40 102.57 1.89 45
6 01/25/2014 02:46:20 -81.30, 5.63 77.38 01/25/2014 02:45:52 -81.30, 5.59 77.39 0.90 28
7 01/27/2014 21:30:02 81.28, -95.99 101.83 01/27/2014 21:30:36 81.29, -95.80 101.87 3.23 34
8 01/27/2014 22:20:41 -81.29, 71.91 78.12 01/27/2014 22:20:03 -81.29, 71.84 78.14 1.38 38
9 01/30/2014 17:04:23 81.29, -29.34 101.10 01/30/2014 17:04:47 81.29, -29.34 101.11 0.18 24




NCC Satellite Simultaneous Nadir Overpasses (SNOs) Prediction Service
